| time (UTC) | temp C | wind direction | speed KPH | gust KPH | rain 1hr cm | rain 24hr cm | rain mn cm | humidity % | barometer mb |
| 20260506000002 | 1 | 294 | 8.0 | 0.0 | 0.00 | 0.00 | 0.00 | 61 | 1018.2 |
| 20260505234502 | 1 | 294 | 8.0 | 0.0 | 0.00 | 0.00 | 0.00 | 61 | 1018.2 |
| 20260505233001 | 1 | 294 | 8.0 | 0.0 | 0.00 | 0.00 | 0.00 | 61 | 1018.2 |
| 20260505231503 | 1 | 294 | 8.0 | 0.0 | 0.00 | 0.00 | 0.00 | 61 | 1018.2 |
| 20260505230001 | 1 | 294 | 8.0 | 0.0 | 0.00 | 0.00 | 0.00 | 61 | 1018.2 |
| 20260505224503 | 2 | 294 | 8.0 | 0.0 | 0.00 | 0.00 | 0.00 | 61 | 1018.2 |
| 20260505223001 | 2 | 294 | 8.0 | 0.0 | 0.00 | 0.00 | 0.00 | 61 | 1018.2 |
| 20260505221502 | 2 | 293 | 9.7 | 0.0 | 0.00 | 0.00 | 0.00 | 61 | 1018.2 |
| 20260505220002 | 2 | 293 | 9.7 | 0.0 | 0.00 | 0.00 | 0.00 | 61 | 1018.2 |
| 20260505213002 | 3 | 293 | 9.7 | 0.0 | 0.00 | 0.00 | 0.00 | 61 | 1018.2 |
| 20260505211504 | 3 | 293 | 9.7 | 0.0 | 0.00 | 0.00 | 0.00 | 61 | 1018.2 |
| 20260505210003 | 3 | 293 | 9.7 | 0.0 | 0.00 | 0.00 | 0.00 | 61 | 1018.2 |
| 20260505204505 | 3 | 293 | 9.7 | 0.0 | 0.00 | 0.00 | 0.00 | 61 | 1018.2 |
| 20260505203002 | 4 | 297 | 8.0 | 0.0 | 0.00 | 0.00 | 0.00 | 61 | 1018.2 |
| 20260505201504 | 4 | 297 | 8.0 | 0.0 | 0.00 | 0.00 | 0.00 | 61 | 1018.2 |
| 20260505200002 | 4 | 297 | 8.0 | 0.0 | 0.00 | 0.00 | 0.00 | 61 | 1018.2 |
| 20260505194502 | 5 | 298 | 11.3 | 0.0 | 0.00 | 0.00 | 0.00 | 61 | 1018.2 |
| 20260505193002 | 5 | 298 | 11.3 | 0.0 | 0.00 | 0.00 | 0.00 | 61 | 1018.2 |
| 20260505191501 | 5 | 298 | 11.3 | 0.0 | 0.00 | 0.00 | 0.00 | 61 | 1018.2 |
| 20260505190003 | 5 | 298 | 11.3 | 0.0 | 0.00 | 0.00 | 0.00 | 61 | 1018.2 |
| 20260505184501 | 6 | 298 | 11.3 | 0.0 | 0.00 | 0.00 | 0.00 | 61 | 1018.2 |
| 20260505183002 | 6 | 308 | 9.7 | 0.0 | 0.00 | 0.00 | 0.00 | 61 | 1018.2 |
| 20260505181502 | 6 | 308 | 9.7 | 0.0 | 0.00 | 0.00 | 0.00 | 61 | 1018.2 |
| 20260505180003 | 6 | 300 | 11.3 | 0.0 | 0.00 | 0.00 | 0.00 | 61 | 1018.2 |
| 20260505174502 | 7 | 300 | 11.3 | 0.0 | 0.00 | 0.00 | 0.00 | 61 | 1018.2 |
| 20260505173002 | 7 | 300 | 11.3 | 0.0 | 0.00 | 0.00 | 0.00 | 61 | 1018.2 |
| 20260505171501 | 7 | 300 | 11.3 | 0.0 | 0.00 | 0.00 | 0.00 | 61 | 1018.2 |
| 20260505170003 | 8 | 300 | 11.3 | 0.0 | 0.00 | 0.00 | 0.00 | 61 | 1018.2 |
| 20260505164501 | 8 | 301 | 11.3 | 0.0 | 0.00 | 0.00 | 0.00 | 61 | 1018.2 |
| 20260505163002 | 8 | 301 | 11.3 | 0.0 | 0.00 | 0.00 | 0.00 | 61 | 1018.2 |
| 20260505161501 | 8 | 296 | 12.9 | 0.0 | 0.00 | 0.00 | 0.00 | 61 | 1018.2 |
| 20260505153002 | 8 | 296 | 12.9 | 0.0 | 0.00 | 0.00 | 0.00 | 61 | 1018.2 |
| 20260505151502 | 8 | 296 | 12.9 | 0.0 | 0.00 | 0.00 | 0.00 | 61 | 1018.2 |
| 20260505124502 | 10 | 299 | 8.0 | 0.0 | 0.00 | 0.00 | 0.00 | 61 | 1018.2 |
| 20260505123004 | 10 | 307 | 8.0 | 0.0 | 0.00 | 0.00 | 0.00 | 61 | 1018.2 |
| 20260505121503 | 10 | 307 | 8.0 | 0.0 | 0.00 | 0.00 | 0.00 | 61 | 1018.2 |
| 20260505120003 | 10 | 307 | 8.0 | 0.0 | 0.00 | 0.00 | 0.00 | 61 | 1018.2 |
| 20260505114504 | 10 | 317 | 6.4 | 0.0 | 0.00 | 0.00 | 0.00 | 61 | 1018.2 |
| 20260505113002 | 10 | 317 | 6.4 | 0.0 | 0.00 | 0.00 | 0.00 | 61 | 1018.2 |
| 20260505111503 | 10 | 317 | 6.4 | 0.0 | 0.00 | 0.00 | 0.00 | 61 | 1018.2 |
| 20260505101503 | 9 | 324 | 8.0 | 0.0 | 0.00 | 0.00 | 0.00 | 61 | 1018.2 |
| 20260505100002 | 10 | 325 | 9.7 | 0.0 | 0.00 | 0.00 | 0.00 | 61 | 1018.2 |
| 20260505094502 | 10 | 325 | 9.7 | 0.0 | 0.00 | 0.00 | 0.00 | 61 | 1018.2 |
| 20260505093006 | 12 | 325 | 9.7 | 0.0 | 0.00 | 0.00 | 0.00 | 61 | 1018.2 |
| 20260505090002 | 12 | 325 | 9.7 | 0.0 | 0.00 | 0.00 | 0.00 | 61 | 1018.2 |
| 20260505084502 | 11 | 321 | 11.3 | 0.0 | 0.00 | 0.00 | 0.00 | 61 | 1018.2 |
| 20260505083005 | 12 | 321 | 11.3 | 0.0 | 0.00 | 0.00 | 0.00 | 61 | 1018.2 |
| 20260505081502 | 12 | 321 | 11.3 | 0.0 | 0.00 | 0.00 | 0.00 | 61 | 1018.2 |
| 20260505080004 | 11 | 306 | 11.3 | 0.0 | 0.00 | 0.00 | 0.00 | 61 | 1018.2 |
| 20260505074502 | 13 | 306 | 11.3 | 0.0 | 0.00 | 0.00 | 0.00 | 61 | 1018.2 |
| 20260505073004 | 11 | 306 | 11.3 | 0.0 | 0.00 | 0.00 | 0.00 | 61 | 1018.2 |
| 20260505071503 | 11 | 306 | 11.3 | 0.0 | 0.00 | 0.00 | 0.00 | 61 | 1018.2 |
| 20260505070005 | 9 | 306 | 11.3 | 0.0 | 0.00 | 0.00 | 0.00 | 61 | 1018.2 |
| 20260505064501 | 5 | 294 | 12.9 | 0.0 | 0.00 | 0.00 | 0.00 | 61 | 1018.2 |
| 20260505063005 | 2 | 294 | 12.9 | 0.0 | 0.00 | 0.00 | 0.00 | 61 | 1018.2 |
| 20260505061501 | 2 | 290 | 12.9 | 0.0 | 0.00 | 0.00 | 0.00 | 61 | 1018.2 |
| 20260505060003 | 1 | 290 | 12.9 | 0.0 | 0.00 | 0.00 | 0.00 | 61 | 1018.2 |
| 20260505054501 | 1 | 290 | 12.9 | 0.0 | 0.00 | 0.00 | 0.00 | 61 | 1018.2 |
| 20260505053003 | 1 | 290 | 12.9 | 0.0 | 0.00 | 0.00 | 0.00 | 61 | 1018.2 |
| 20260505051502 | 1 | 290 | 12.9 | 0.0 | 0.00 | 0.00 | 0.00 | 61 | 1018.2 |
| 20260505041502 | 0 | 296 | 14.5 | 0.0 | 0.00 | 0.00 | 0.00 | 61 | 1018.2 |
| 20260505040005 | 0 | 296 | 14.5 | 0.0 | 0.00 | 0.00 | 0.00 | 61 | 1018.2 |
| 20260505034502 | 0 | 299 | 14.5 | 0.0 | 0.00 | 0.00 | 0.00 | 61 | 1018.2 |
| 20260505033002 | 1 | 299 | 14.5 | 0.0 | 0.00 | 0.00 | 0.00 | 61 | 1018.2 |
| 20260505031501 | 1 | 299 | 14.5 | 0.0 | 0.00 | 0.00 | 0.00 | 61 | 1018.2 |
| 20260505030002 | 1 | 299 | 14.5 | 0.0 | 0.00 | 0.00 | 0.00 | 61 | 1018.2 |
| 20260505023002 | 1 | 295 | 12.9 | 0.0 | 0.00 | 0.00 | 0.00 | 61 | 1018.2 |
| 20260505021501 | 1 | 295 | 12.9 | 0.0 | 0.00 | 0.00 | 0.00 | 61 | 1018.2 |
| 20260505020004 | 1 | 294 | 12.9 | 0.0 | 0.00 | 0.00 | 0.00 | 61 | 1018.2 |
| 20260505014504 | 1 | 294 | 12.9 | 0.0 | 0.00 | 0.00 | 0.00 | 61 | 1018.2 |
| 20260505013003 | 1 | 294 | 12.9 | 0.0 | 0.00 | 0.00 | 0.00 | 61 | 1018.2 |
| 20260505011503 | 2 | 294 | 12.9 | 0.0 | 0.00 | 0.00 | 0.00 | 61 | 1018.2 |
| 20260505010004 | 2 | 294 | 12.9 | 0.0 | 0.00 | 0.00 | 0.00 | 61 | 1018.2 |
| 20260505004502 | 2 | 288 | 14.5 | 0.0 | 0.00 | 0.00 | 0.00 | 61 | 1018.2 |
| 20260505003002 | 1 | 288 | 14.5 | 0.0 | 0.00 | 0.00 | 0.00 | 61 | 1018.2 |
| 20260505001502 | 1 | 288 | 14.5 | 0.0 | 0.00 | 0.00 | 0.00 | 61 | 1018.2 |